When you browse on this site, cookies collect data to enhance your experience and personalize the content and advertising you see.
Visit our Privacy Policy to learn more. By continuing to use the site, you agree to this use of cookies and data.
  • en Belgique
  • Liste des pays
  • À 7 jours
  • Température de l'eau
  • Carte satellitaire
  • Carte météo
  • Widgets météo
  • user-avatar
    Se connecter

    Météo par heure à Binche

    Ce jour, 19 Janvier, Samedi

    Heure Température Précipitation Vent Pression Humidité
    00:00 -2°C° 0 mm 3 m/s 752 mmHg 86%
    01:00 -2°C° 0 mm 3 m/s 751 mmHg 86%
    02:00 -2°C° 0 mm 3 m/s 751 mmHg 86%
    03:00 -2°C° 0 mm 3 m/s 751 mmHg 86%
    04:00 -2°C° 0 mm 3 m/s 750 mmHg 85%
    05:00 -2°C° 0 mm 3 m/s 750 mmHg 85%
    06:00 -4°C° 0 mm 4 m/s 750 mmHg 84%
    07:00 -3°C° 0 mm 4 m/s 750 mmHg 81%
    08:00 -3°C° 0 mm 4 m/s 750 mmHg 77%
    09:00 -2°C° 0 mm 5 m/s 749 mmHg 74%
    10:00 -1°C° 0 mm 5 m/s 749 mmHg 68%
    11:00 0°C° 0 mm 5 m/s 749 mmHg 61%
    12:00 +1°C° 0 mm 4 m/s 749 mmHg 53%
    13:00 +1°C° 0 mm 4 m/s 748 mmHg 54%
    14:00 +1°C° 0 mm 4 m/s 748 mmHg 55%
    15:00 +2°C° 0 mm 3 m/s 748 mmHg 56%
    16:00 0°C° 0 mm 3 m/s 748 mmHg 60%
    17:00 -1°C° 0 mm 3 m/s 748 mmHg 65%
    18:00 -2°C° 0 mm 3 m/s 748 mmHg 69%
    19:00 -2°C° 0 mm 3 m/s 748 mmHg 69%
    20:00 -2°C° 0 mm 3 m/s 747 mmHg 70%
    21:00 -2°C° 0 mm 3 m/s 747 mmHg 70%
    22:00 -4°C° 0 mm 3 m/s 748 mmHg 70%
    23:00 -4°C° 0 mm 3 m/s 748 mmHg 69%

    Demain, 20 Janvier, Dimanche

    Heure Température Précipitation Vent Pression Humidité
    00:00 -4°C° 0 mm 3 m/s 748 mmHg 69%
    01:00 -4°C° 0 mm 3 m/s 748 mmHg 68%
    02:00 -3°C° 0 mm 2 m/s 748 mmHg 68%
    03:00 -3°C° 0 mm 2 m/s 748 mmHg 67%
    04:00 -3°C° 0 mm 2 m/s 748 mmHg 67%
    05:00 -3°C° 0 mm 2 m/s 748 mmHg 66%
    06:00 -3°C° 0 mm 2 m/s 748 mmHg 66%
    07:00 -3°C° 0 mm 2 m/s 749 mmHg 63%
    08:00 -3°C° 0 mm 2 m/s 749 mmHg 61%
    09:00 -2°C° 0 mm 2 m/s 750 mmHg 59%
    10:00 -1°C° 0 mm 2 m/s 750 mmHg 54%
    11:00 +1°C° 0 mm 2 m/s 750 mmHg 50%
    12:00 +2°C° 0 mm 2 m/s 750 mmHg 46%
    13:00 +2°C° 0 mm 2 m/s 751 mmHg 48%
    14:00 +2°C° 0 mm 2 m/s 751 mmHg 50%
    15:00 0°C° 0 mm 3 m/s 751 mmHg 52%
    16:00 -1°C° 0 mm 2 m/s 752 mmHg 57%
    17:00 -2°C° 0 mm 2 m/s 752 mmHg 62%
    18:00 -3°C° 0 mm 2 m/s 753 mmHg 67%
    19:00 -3°C° 0 mm 2 m/s 753 mmHg 68%
    20:00 -3°C° 0 mm 2 m/s 754 mmHg 69%
    21:00 -3°C° 0 mm 2 m/s 754 mmHg 70%
    22:00 -3°C° 0 mm 2 m/s 755 mmHg 69%
    23:00 -4°C° 0 mm 2 m/s 755 mmHg 69%

    Après-demain, 21 Janvier, Lundi

    Heure Température Précipitation Vent Pression Humidité
    00:00 -4°C° 0 mm 2 m/s 755 mmHg 68%
    01:00 -4°C° 0 mm 2 m/s 755 mmHg 68%
    02:00 -4°C° 0 mm 2 m/s 756 mmHg 67%
    03:00 -2°C° 0 mm 1 m/s 756 mmHg 66%
    04:00 -2°C° 0 mm 1 m/s 756 mmHg 65%
    05:00 -2°C° 0 mm 1 m/s 756 mmHg 64%
    06:00 -2°C° 0 mm 1 m/s 756 mmHg 63%
    07:00 -1°C° 0 mm 1 m/s 756 mmHg 60%
    08:00 -1°C° 0 mm 1 m/s 756 mmHg 57%
    09:00 0°C° 0 mm 1 m/s 757 mmHg 53%
    10:00 0°C° 0 mm 0 m/s 756 mmHg 49%
    11:00 +1°C° 0 mm 0 m/s 756 mmHg 44%
    12:00 +2°C° 0 mm 0 m/s 756 mmHg 39%
    13:00 +2°C° 0 mm 0 m/s 755 mmHg 42%
    14:00 +2°C° 0 mm 0 m/s 755 mmHg 45%
    15:00 +2°C° 0 mm 0 m/s 755 mmHg 48%
    16:00 +2°C° 0 mm 1 m/s 754 mmHg 50%
    17:00 +1°C° 0 mm 1 m/s 754 mmHg 52%
    18:00 -2°C° 0 mm 2 m/s 753 mmHg 54%
    19:00 -3°C° 0 mm 2 m/s 753 mmHg 55%
    20:00 -4°C° 0 mm 3 m/s 752 mmHg 56%
    21:00 -4°C° 0 mm 3 m/s 752 mmHg 57%
    22:00 -4°C° 0 mm 4 m/s 751 mmHg 56%
    23:00 -4°C° 0 mm 4 m/s 751 mmHg 56%

    22 Janvier, Mardi

    Heure Température Précipitation Vent Pression Humidité
    00:00 -5°C° 0 mm 5 m/s 750 mmHg 56%
    01:00 -5°C° 0 mm 6 m/s 749 mmHg 57%
    02:00 -5°C° 0 mm 6 m/s 748 mmHg 58%
    03:00 -4°C° 0 mm 7 m/s 746 mmHg 59%
    04:00 -4°C° 0 mm 7 m/s 745 mmHg 57%
    05:00 -5°C° 0 mm 8 m/s 744 mmHg 56%
    06:00 -5°C° 0 mm 8 m/s 743 mmHg 55%
    07:00 -5°C° 0.3 mm 8 m/s 742 mmHg 63%
    08:00 -5°C° 0.3 mm 8 m/s 742 mmHg 71%
    09:00 -6°C° 0.3 mm 8 m/s 741 mmHg 79%
    10:00 -4°C° 0.5 mm 7 m/s 741 mmHg 82%
    11:00 -4°C° 0.5 mm 6 m/s 741 mmHg 86%
    12:00 -4°C° 0.5 mm 6 m/s 740 mmHg 89%
    13:00 -4°C° 0.4 mm 5 m/s 740 mmHg 90%
    14:00 -3°C° 0.4 mm 4 m/s 740 mmHg 92%
    15:00 -1°C° 0.4 mm 3 m/s 739 mmHg 93%
    16:00 -2°C° 0.3 mm 2 m/s 739 mmHg 94%
    17:00 0°C° 0.3 mm 1 m/s 739 mmHg 95%
    18:00 0°C° 0.3 mm 1 m/s 739 mmHg 96%
    19:00 0°C° 0.2 mm 1 m/s 739 mmHg 96%
    20:00 0°C° 0.2 mm 1 m/s 739 mmHg 96%
    21:00 0°C° 0.2 mm 1 m/s 739 mmHg 96%
    22:00 0°C° 0.2 mm 1 m/s 739 mmHg 96%
    23:00 -2°C° 0.2 mm 2 m/s 739 mmHg 96%

    23 Janvier, Mercredi

    Heure Température Précipitation Vent Pression Humidité
    00:00 -2°C° 0.2 mm 2 m/s 739 mmHg 96%
    01:00 -2°C° 0.2 mm 2 m/s 739 mmHg 96%
    02:00 -2°C° 0.2 mm 2 m/s 739 mmHg 96%
    03:00 -2°C° 0.2 mm 2 m/s 739 mmHg 96%
    04:00 -2°C° 0.1 mm 2 m/s 739 mmHg 96%
    05:00 -2°C° 0.1 mm 2 m/s 739 mmHg 96%
    06:00 -2°C° 0.1 mm 2 m/s 740 mmHg 96%
    07:00 -2°C° 0 mm 2 m/s 740 mmHg 96%
    08:00 -2°C° 0 mm 2 m/s 741 mmHg 96%
    09:00 -2°C° 0 mm 2 m/s 741 mmHg 96%
    10:00 -1°C° 0 mm 2 m/s 741 mmHg 96%
    11:00 -1°C° 0 mm 2 m/s 742 mmHg 96%
    12:00 +1°C° 0 mm 2 m/s 742 mmHg 96%
    13:00 +1°C° 0 mm 2 m/s 742 mmHg 96%
    14:00 +1°C° 0 mm 2 m/s 743 mmHg 96%
    15:00 +1°C° 0 mm 2 m/s 743 mmHg 96%
    16:00 -1°C° 0 mm 2 m/s 743 mmHg 96%
    17:00 +1°C° 0 mm 1 m/s 744 mmHg 96%
    18:00 0°C° 0 mm 1 m/s 744 mmHg 96%
    19:00 0°C° 0 mm 1 m/s 745 mmHg 96%
    20:00 -1°C° 0 mm 1 m/s 745 mmHg 96%
    21:00 -2°C° 0 mm 0 m/s 745 mmHg 95%
    22:00 -1°C° 0 mm 1 m/s 745 mmHg 95%
    23:00 -1°C° 0 mm 1 m/s 745 mmHg 95%

    24 Janvier, Jeudi

    Heure Température Précipitation Vent Pression Humidité
    00:00 -1°C° 0 mm 1 m/s 745 mmHg 95%
    01:00 -2°C° 0 mm 1 m/s 745 mmHg 94%
    02:00 -2°C° 0 mm 1 m/s 745 mmHg 93%
    03:00 -2°C° 0 mm 1 m/s 745 mmHg 92%
    04:00 -2°C° 0 mm 1 m/s 746 mmHg 91%
    05:00 -2°C° 0 mm 1 m/s 746 mmHg 91%
    06:00 -2°C° 0 mm 1 m/s 746 mmHg 91%
    07:00 -4°C° 0 mm 2 m/s 746 mmHg 91%
    08:00 -3°C° 0 mm 2 m/s 746 mmHg 92%
    09:00 -3°C° 0 mm 2 m/s 747 mmHg 92%
    10:00 0°C° 0 mm 1 m/s 747 mmHg 92%
    11:00 +1°C° 0 mm 1 m/s 747 mmHg 92%
    12:00 +2°C° 0 mm 1 m/s 747 mmHg 93%
    13:00 +2°C° 0 mm 1 m/s 747 mmHg 94%
    14:00 +2°C° 0 mm 1 m/s 748 mmHg 95%
    15:00 +2°C° 0 mm 1 m/s 748 mmHg 96%
    16:00 +2°C° 0 mm 1 m/s 748 mmHg 96%
    17:00 -1°C° 0 mm 2 m/s 749 mmHg 96%
    18:00 -1°C° 0 mm 2 m/s 750 mmHg 96%
    19:00 -2°C° 0 mm 2 m/s 751 mmHg 96%
    20:00 -3°C° 0 mm 2 m/s 751 mmHg 96%
    21:00 -3°C° 0 mm 2 m/s 752 mmHg 95%
    22:00 -4°C° 0 mm 2 m/s 753 mmHg 95%
    23:00 -4°C° 0 mm 2 m/s 753 mmHg 95%
    Voir plus